DIAMANT B-P4 DEB, 7654

Orbit data source: Space-Track

DIAMANT B-P4 DEB, 7654 is space debris in LEO originally from a launch on Thu, 06 Feb 1975 UTC launched from the French Guiana (FRGUI). Debris objects in space refer to the collection of defunct objects orbiting the Earth. Examples of debris include non-operational satellites, rocket bodies, and fragments generated from explosions, collisions, or faulty payload assembly.

Loading next visibility...
Identifier
7654, 1975-010C
Orbit
LEO
Country
Flag of FRFR
Related business
Manufacturer
Unknown
Mission
Spacecraft
Bus & Motor
Unknown
Mass
Unknown
Launch date (UTC)
1975-02-06 (51 years ago)
Launch vehicle
Unknown
Launch site
French Guiana (FRGUI)
Object type
Payload
Rocket body
Debris
Shape & HBR
Unknown shape, 0.1 m
Radar Cross Section
Small (<0.1 m²)

Expand to show TLE details & history
Last TLE update: 21 hours ago

TLE from 21 hours ago
0 DIAMANT B-P4 DEB
1  7654U 75010C   25312.51171394  .00000150  00000-0  19394-3 0  9994
2  7654  49.8458 354.9189 0171673  72.1186 289.8352 13.95692688579130
Epoch: 2025-11-08T12:16Z
TLE epoch observation values (Epoch: 2025-11-08T12:16:52.084Z)
Latitude
-0.00004°
Longitude
122.76158°
Altitude
868.727 km
Speed
7.44 km/s
True Right ascension
23h 39m 40s
True Declination
0° 00' 00"
Sunlit
Object was in full shadow at epoch
Visualization orbit readout
Latitude
Unknown
Longitude
Unknown
Altitude
Unknown
Speed
Unknown
Apparent Right ascension
Unknown
Apparent Declination
Unknown
Sunlit
N/A
Visualization observer readout
Local Sidereal Time
05:53:42
Azimuth
Unknown
Elevation
Unknown
Doppler factor
Unknown
Orbital elements
Apogee altitude
1,034.611 km
Perigee altitude
784.393 km
Semi-major axis
7,287.639 km
Eccentricity
0.01717
Inclination
49.8458°
RAAN
354.9189°
Arg. of periapsis
72.1186°
True anomaly
287.97144°
Mean anomaly
289.8352°
Eccentric anomaly
288.90464°
Mean motion
3.48869 °/min
Orbital period
103.19 mins
BSTAR
0.00019394
Loading maneuver chart data...
Computing Atmospheric mass density...
Loading historical data...
Loading historical data...
Loading historical data...
Loading historical data...
Loading historical data...
Loading historical data...
Loading historical data...
Other satellites on launch #10 in the year 1975 (1975-02-06 UTC)

Documentation

Showing up to 5 results
|